Oklahoma City / Page Muni, OK

9:29 PM CDT on September 25, 2017 (GMT -0500)
Oklahoma City / Page Muni

Weather History for KRCE - June, 2013

Change the Weather History Date:

Saturday, June 15, 2013

  Actual Average (KPWA) Record (KPWA)
Temperature  
Mean Temperature 78 °F -  
Max Temperature 84 °F 87 °F 105 °F (1953)
Min Temperature 71 °F 67 °F 54 °F (1969)
Cooling Degree Days 12    
Growing Degree Days 28 (Base 50)    
Moisture  
Dew Point 71 °F    
Average Humidity 81    
Maximum Humidity 94    
Minimum Humidity 54    
Precipitation  
Precipitation 0.01 in - - ()
Sea Level Pressure  
Sea Level Pressure 29.99 in    
Wind  
Wind Speed 8 mph (South)    
Max Wind Speed 15 mph    
Max Gust Speed 23 mph    
Visibility 10 miles    
Events Rain , Thunderstorm    
Averages and records for this station are not official NWS values.
T = Trace of Precipitation, MM = Missing Value Source: NWS Daily Summary

Daily Weather History Graph

Daily Weather History Graph

Search for Another Location

Airport or City:

Trip Planner

Search our weather history database for the weather conditions in past years. The results will help you decide how hot, cold, wet, or windy it might be!

Date:

Astronomy

Jun. 15, 2013 Rise Set
Actual Time 6:15 AM CDT 8:48 PM CDT
Civil Twilight 5:45 AM CDT 9:18 PM CDT
Nautical Twilight 5:08 AM CDT 9:55 PM CDT
Astronomical Twilight 4:27 AM CDT 10:36 PM CDT
Moon 12:39 PM CDT (6/15) 12:36 AM CDT (6/15)
Length of Visible Light 15h 32m
Length of Day
14h 32m
Waxing Crescent, 40% of the Moon is Illuminated
Jun 15
Waxing Crescent
Jun 16
First Quarter
Jun 23
Full
Jun 29
Last Quarter
Jul 8
New

Hourly Weather History & Observations

Time (CDT) Temp. Heat Index Dew Point Humidity Pressure Visibility Wind Dir Wind Speed Gust Speed Precip Events Conditions
12:15 AM 77.0 °F - 68.0 °F 74% 29.99 in 10.0 mi South 9.2 mph - N/A   Unknown
12:35 AM 77.0 °F - 68.0 °F 74% 29.99 in 10.0 mi South 9.2 mph - N/A   Unknown
12:55 AM 77.0 °F - 68.0 °F 74% 29.98 in 10.0 mi South 8.1 mph - N/A   Unknown
1:15 AM 77.0 °F - 69.8 °F 78% 29.98 in 10.0 mi South 6.9 mph - N/A   Unknown
1:35 AM 75.2 °F - 69.8 °F 83% 29.98 in 10.0 mi South 5.8 mph - N/A   Unknown
1:55 AM 75.2 °F - 71.6 °F 89% 29.98 in 10.0 mi South 5.8 mph - N/A   Unknown
2:15 AM 75.2 °F - 69.8 °F 83% 29.98 in 10.0 mi SSW 4.6 mph - N/A   Unknown
2:35 AM 75.2 °F - 71.6 °F 89% 29.98 in 10.0 mi South 5.8 mph - N/A   Unknown
2:55 AM 75.2 °F - 69.8 °F 83% 29.98 in 10.0 mi South 4.6 mph - N/A   Unknown
3:15 AM 75.2 °F - 69.8 °F 83% 29.98 in 10.0 mi South 4.6 mph - N/A   Unknown
3:35 AM 73.4 °F - 69.8 °F 88% 29.98 in 10.0 mi SSE 6.9 mph - N/A   Unknown
3:55 AM 73.4 °F - 69.8 °F 88% 29.97 in 10.0 mi SSE 6.9 mph - N/A   Unknown
4:15 AM 73.4 °F - 69.8 °F 88% 29.98 in 10.0 mi South 5.8 mph - N/A   Unknown
4:35 AM 73.4 °F - 68.0 °F 83% 29.98 in 10.0 mi South 6.9 mph - N/A   Unknown
4:55 AM 73.4 °F - 69.8 °F 88% 29.98 in 10.0 mi South 6.9 mph - N/A   Unknown
5:15 AM 73.4 °F - 69.8 °F 88% 29.98 in 10.0 mi SSE 4.6 mph - N/A   Unknown
5:35 AM 73.4 °F - 68.0 °F 83% 29.98 in 10.0 mi SSE 5.8 mph - N/A   Unknown
5:55 AM 73.4 °F - 69.8 °F 88% 29.99 in 10.0 mi SE 5.8 mph - N/A   Unknown
6:15 AM 73.4 °F - 69.8 °F 88% 29.99 in 10.0 mi SE 6.9 mph - N/A   Unknown
6:35 AM 73.4 °F - 69.8 °F 88% 29.99 in 10.0 mi SE 5.8 mph - N/A   Clear
6:55 AM 73.4 °F - 71.6 °F 94% 30.00 in 10.0 mi SSE 6.9 mph - N/A   Clear
7:15 AM 73.4 °F - 71.6 °F 94% 30.01 in 10.0 mi SSE 8.1 mph - N/A   Clear
7:35 AM 73.4 °F - 71.6 °F 94% 30.01 in 9.0 mi SSE 6.9 mph - N/A   Clear
7:55 AM 75.2 °F - 71.6 °F 89% 30.01 in 10.0 mi SE 8.1 mph - N/A   Clear
8:15 AM 75.2 °F - 73.4 °F 94% 30.01 in 10.0 mi SSE 6.9 mph - N/A   Clear
8:35 AM 77.0 °F - 73.4 °F 89% 30.02 in 10.0 mi SSE 9.2 mph - N/A   Clear
8:55 AM 77.0 °F - 73.4 °F 89% 30.03 in 10.0 mi South 8.1 mph - N/A   Clear
9:15 AM 77.0 °F - 75.2 °F 94% 30.02 in 9.0 mi South 9.2 mph - N/A   Clear
9:35 AM 78.8 °F - 75.2 °F 89% 30.02 in 10.0 mi South 9.2 mph - N/A   Clear
9:55 AM 80.6 °F 86.2 °F 75.2 °F 84% 30.03 in 10.0 mi South 10.4 mph - N/A   Clear
10:15 AM 82.4 °F 88.2 °F 73.4 °F 74% 30.02 in 10.0 mi SW 8.1 mph - N/A   Partly Cloudy
10:35 AM 82.4 °F 88.2 °F 73.4 °F 74% 30.03 in 10.0 mi South 11.5 mph - N/A   Partly Cloudy
10:55 AM 82.4 °F 89.5 °F 75.2 °F 79% 30.03 in 9.0 mi South 13.8 mph 17.3 mph N/A Thunderstorm Clear
11:15 AM 82.4 °F 87.2 °F 71.6 °F 70% 30.02 in 10.0 mi SSW 13.8 mph - N/A Thunderstorm Partly Cloudy
11:35 AM 82.4 °F 83.9 °F 64.4 °F 54% 30.02 in 10.0 mi WSW 12.7 mph 19.6 mph N/A   Scattered Clouds
11:55 AM 80.6 °F 82.7 °F 66.2 °F 61% 30.03 in 10.0 mi WSW 12.7 mph 18.4 mph N/A   Partly Cloudy
12:15 PM 75.2 °F - 68.0 °F 78% 30.05 in 3.0 mi SW 11.5 mph 23.0 mph N/A Thunderstorm Haze
12:35 PM 71.6 °F - 66.2 °F 83% 30.04 in 5.0 mi SW 6.9 mph - N/A Rain Light Rain
12:55 PM 73.4 °F - 71.6 °F 94% 30.02 in 10.0 mi WSW 9.2 mph 16.1 mph N/A   Clear
1:15 PM 73.4 °F - 66.2 °F 78% 30.03 in 10.0 mi South 5.8 mph - N/A Rain Light Rain
1:35 PM 71.6 °F - 68.0 °F 88% 30.03 in 7.0 mi SE 10.4 mph - N/A Rain Light Rain
1:55 PM 73.4 °F - 71.6 °F 94% 30.03 in 10.0 mi SSE 9.2 mph - 0.01 in   Clear
2:15 PM 75.2 °F - 69.8 °F 83% 30.02 in 10.0 mi SE 8.1 mph - N/A   Clear
2:35 PM 77.0 °F - 71.6 °F 83% 30.01 in 10.0 mi SE 9.2 mph - N/A   Clear
2:55 PM 77.0 °F - 69.8 °F 78% 30.01 in 10.0 mi SSE 8.1 mph - N/A   Clear
3:15 PM 78.8 °F - 71.6 °F 78% 30.00 in 10.0 mi SSE 8.1 mph - N/A   Clear
3:35 PM 80.6 °F 84.6 °F 71.6 °F 74% 29.99 in 10.0 mi South 11.5 mph - N/A   Clear
3:55 PM 82.4 °F 86.3 °F 69.8 °F 66% 29.98 in 10.0 mi SE 10.4 mph - N/A   Clear
4:15 PM 82.4 °F 87.2 °F 71.6 °F 70% 29.97 in 10.0 mi SSE 10.4 mph 17.3 mph N/A   Clear
4:35 PM 82.4 °F 87.2 °F 71.6 °F 70% 29.96 in 10.0 mi South 12.7 mph 17.3 mph N/A   Clear
4:55 PM 84.2 °F 89.6 °F 71.6 °F 66% 29.95 in 10.0 mi South 13.8 mph - N/A   Clear
5:15 PM 84.2 °F 89.6 °F 71.6 °F 66% 29.95 in 10.0 mi South 12.7 mph 16.1 mph N/A   Clear
5:35 PM 84.2 °F 89.6 °F 71.6 °F 66% 29.95 in 10.0 mi South 15.0 mph 19.6 mph N/A   Clear
5:55 PM 84.2 °F 89.6 °F 71.6 °F 66% 29.94 in 10.0 mi South 13.8 mph 20.7 mph N/A   Scattered Clouds
6:15 PM 84.2 °F 89.6 °F 71.6 °F 66% 29.93 in 10.0 mi South 15.0 mph 19.6 mph N/A   Scattered Clouds
6:35 PM 84.2 °F 89.6 °F 71.6 °F 66% 29.93 in 10.0 mi South 15.0 mph 20.7 mph N/A   Scattered Clouds
6:55 PM 82.4 °F 87.2 °F 71.6 °F 70% 29.92 in 10.0 mi SSE 8.1 mph - N/A   Scattered Clouds
7:15 PM 82.4 °F 87.2 °F 71.6 °F 70% 29.93 in 10.0 mi SSE 11.5 mph - N/A   Partly Cloudy
7:35 PM 82.4 °F 87.2 °F 71.6 °F 70% 29.93 in 10.0 mi SSE 12.7 mph - N/A   Partly Cloudy
7:55 PM 80.6 °F 84.6 °F 71.6 °F 74% 29.92 in 10.0 mi SSE 9.2 mph - N/A   Clear
8:15 PM 80.6 °F 84.6 °F 71.6 °F 74% 29.93 in 10.0 mi SE 8.1 mph - N/A   Clear
8:35 PM 77.0 °F - 71.6 °F 83% 29.93 in 10.0 mi SSE 9.2 mph - N/A   Clear
8:55 PM 77.0 °F - 73.4 °F 89% 29.94 in 10.0 mi SSE 8.1 mph - N/A   Clear
9:15 PM 77.0 °F - 71.6 °F 83% 29.95 in 10.0 mi SSE 10.4 mph - N/A   Clear
9:35 PM 75.2 °F - 69.8 °F 83% 29.96 in 10.0 mi SSE 10.4 mph - N/A   Unknown
9:55 PM 75.2 °F - 68.0 °F 78% 29.97 in 10.0 mi SSE 9.2 mph - N/A   Scattered Clouds
10:15 PM 73.4 °F - 68.0 °F 83% 29.98 in 10.0 mi SSE 8.1 mph - N/A   Partly Cloudy
10:35 PM 73.4 °F - 68.0 °F 83% 29.99 in 10.0 mi SSE 9.2 mph - N/A   Unknown
10:55 PM 73.4 °F - 68.0 °F 83% 29.99 in 10.0 mi SE 9.2 mph - N/A   Unknown
11:15 PM 73.4 °F - 71.6 °F 94% 30.00 in 10.0 mi SSE 10.4 mph - N/A   Clear
11:35 PM 73.4 °F - 71.6 °F 94% 30.00 in 10.0 mi SSE 8.1 mph - N/A   Clear
11:55 PM 73.4 °F - 71.6 °F 94% 29.99 in 10.0 mi SSE 6.9 mph - N/A   Unknown